#timestamp,LO_Frequency,Hit,StdDev 
1587499215.6,286046999.6,N
1587499235.4,286046999.0,N
1587499255.3,286046998.1,N
1587499275.1,286047001.2,N
1587499295.9,286046998.9,N
1587499315.7,286047001.1,N
1587499335.5,286047001.0,N
1587499355.4,286047001.4,N
1587499375.2,286047002.1,N
1587499395.1,286046998.1,N
1587499396.0,286046998.1,N
1587499415.8,286047002.6,N
1587499435.6,286047002.2,N
1587499455.5,286047004.4,N
1587499475.3,286047002.1,N
1587499495.2,286047003.6,N
1587499515.9,286047002.0,N
1587499535.7,286047000.0,N
1587499555.6,286047004.0,N
1587499575.4,286047003.0,N
1587499595.2,286047005.9,Y
1587499615.1,286047002.1,P
1587499616.0,286047002.1,P
1587499635.8,286047002.8,P
1587499655.7,286047001.9,N
1587499675.5,286047000.0,N
1587499695.3,286047001.6,N
1587499715.2,286047003.8,Y
1587499735.0,286047000.1,P
1587499735.9,286047000.1,N
1587499755.8,286047000.9,N
1587499775.6,286046999.5,N
1587499795.4,286046996.7,Y
1587499815.3,286046997.2,P
1587499835.1,286046999.5,N
1587499855.9,286047001.2,N
1587499875.7,286046998.4,N
1587499895.5,286046996.9,N
1587499915.4,286046997.7,N
1587499935.2,286046999.6,N
1587499955.0,286047000.3,N
1587499955.9,286047000.3,N
1587499975.8,286047002.3,N
1587499995.6,286047001.5,N
1587500015.5,286046999.9,N
1587500035.3,286047000.0,N
1587500055.1,286047001.5,N
1587500075.9,286047001.2,N
1587500095.7,286046998.3,N
1587500115.5,286047001.2,N
1587500135.4,286047002.8,N
1587500155.2,286047000.0,N
1587500175.1,286047000.4,N
1587500176.0,286047000.4,N
1587500195.8,286046999.9,N
1587500215.6,286046999.0,N
1587500235.5,286046996.5,N
1587500255.3,286046998.0,N
1587500275.2,286046999.6,N
1587500295.9,286047001.1,N
1587500315.7,286047000.6,N
1587500335.6,286047001.0,N
1587500355.4,286047000.8,N
1587500375.2,286047000.8,N
1587500395.1,286046998.6,N
1587500396.0,286046998.6,N
1587500415.8,286047002.7,N
1587500435.7,286047000.3,N
1587500455.5,286046998.2,N
1587500475.3,286047000.6,N
1587500495.2,286047000.5,N
1587500515.0,286046998.3,N
1587500515.9,286046998.3,N
1587500535.8,286046997.7,N
1587500555.6,286046996.6,N
1587500575.4,286047001.1,N
1587500595.3,286046999.2,N
1587500615.1,286046998.8,N
1587500635.9,286046998.8,N
1587500655.7,286046999.3,N
1587500675.5,286046999.2,N
1587500695.4,286046999.5,N
1587500715.2,286046998.2,N
1587500735.1,286046998.2,N
1587500736.0,286046998.2,N
1587500755.8,286046999.4,N
1587500775.6,286046999.2,N
1587500795.5,286047000.9,N
1587500815.3,286047002.2,N
1587500835.2,286047001.7,N
1587500855.9,286047001.9,N
1587500875.7,286047001.9,N
1587500895.6,286047001.0,N
1587500915.4,286046999.3,N
1587500935.2,286046999.9,N
1587500955.1,286047000.0,N
1587500956.0,286047000.0,N
1587500975.8,286046998.1,N
1587500995.7,286047000.5,N
1587501015.5,286047001.2,N
1587501035.3,286046998.5,N
1587501055.2,286046997.3,N
1587501075.0,286046997.8,N
1587501075.9,286046997.8,N
1587501095.8,286046997.0,N
1587501115.6,286047000.8,N
1587501135.4,286046999.3,N
1587501155.3,286047000.1,N
1587501175.1,286047000.8,N
1587501195.9,286047000.8,N
1587501215.7,286046997.4,N
1587501235.5,286046996.4,N
1587501255.4,286046996.9,N
1587501275.2,286046996.9,N
1587501295.0,286046995.1,N
1587501295.9,286046995.1,N
1587501315.8,286046993.4,Y
1587501335.6,286047000.9,P
1587501355.5,286047002.6,P
1587501375.3,286047004.1,N
1587501395.1,286047006.0,Y
1587501415.9,286047001.9,P
1587501435.7,286047000.3,N
1587501455.6,286047000.4,N
1587501475.4,286047000.8,N
1587501495.2,286046998.7,N
1587501515.1,286046997.8,N
1587501516.0,286046997.8,N
1587501535.8,286046995.0,Y
1587501555.6,286046996.9,P
1587501575.5,286047000.7,N
1587501595.3,286046998.1,N
1587501615.2,286046999.9,N
1587501635.0,286046999.1,N
1587501635.9,286046999.1,N
1587501655.8,286046998.5,N
1587501675.6,286046993.3,Y
1587501695.4,286046996.2,P
1587501715.3,286046994.0,P
1587501735.1,286046992.9,P
1587501755.8,286046990.8,Y
1587501775.7,286046996.0,P
1587501795.5,286046994.0,P
1587501815.4,286046997.9,N
1587501835.2,286046995.0,Y
1587501855.0,286046999.0,P
1587501855.9,286046999.0,N
1587501875.8,286046996.7,N
1587501895.6,286046999.0,N
1587501915.5,286047000.6,N
1587501935.3,286046998.7,N
1587501955.1,286047000.1,N
1587501975.9,286047001.6,N
1587501995.7,286047003.2,N
1587502015.5,286047001.3,N
1587502035.4,286047002.2,N
1587502055.2,286047003.5,N
1587502075.1,286047002.9,N
1587502076.0,286047002.9,N
1587502095.8,286047002.1,N
1587502115.6,286047005.6,N
1587502135.5,286047004.0,N
1587502155.3,286047002.8,N
1587502175.2,286047002.3,N
1587502195.9,286046999.8,N
1587502215.7,286046999.9,N
1587502235.6,286047001.1,N
1587502255.4,286047000.8,N
1587502275.3,286046998.9,N
1587502295.1,286046999.2,N
1587502296.0,286046999.2,N
1587502315.8,286046996.7,N
1587502335.7,286047002.8,N
1587502355.5,286047015.0,Y
1587502375.4,286047017.1,P
1587502395.2,286047011.2,N
1587502415.0,286047008.7,N
1587502415.9,286047008.7,N
1587502435.8,286047005.1,N
1587502455.6,286047002.6,N
1587502475.5,286046999.0,N
1587502495.3,286046997.5,N
1587502515.1,286046996.7,N
1587502535.9,286046996.9,N
1587502555.7,286046996.6,N
1587502575.6,286047000.7,N
1587502595.4,286046998.5,N
1587502615.2,286046999.9,N
1587502635.1,286046999.9,N
1587502636.0,286046999.9,N
1587502655.8,286046999.8,N
1587502675.7,286047001.7,N
1587502695.5,286047000.5,N
1587502715.3,286047001.1,N
1587502735.2,286046999.9,N
1587502755.0,286047002.6,N
1587502755.9,286047002.6,N
1587502775.8,286047001.2,N
1587502795.6,286047000.3,N
